Home   Weather   Atascadero   Past weeks
Flag for USA

Past Weather in Atascadero, California, USA — Yesterday and Last 2 Weeks

Now
47 °F

Sunny.


Feels Like: 45 °F
Forecast: 74 / 44 °F
Wind: 5 mph from East

Location: Paso Robles Municipal Airport

Current Time: Oct 18, 2019 at 9:27:31 am

Latest Report: Oct 18, 2019 at 8:53 am


Visibility: 10 mi

Pressure: 30.10 "Hg

Humidity: 80%

Dew Point: 41 °F

Location of AtascaderoLocation

Past Weather in Atascadero — Graph

°F

Atascadero Temperature Yesterday

Maximum temperature yesterday: 74 °F (at 1:53 pm)
Minimum temperature yesterday: 44 °F (at 5:53 am)
Average temperature yesterday: 58 °F

High & Low Weather Summary for the Past Weeks

 TemperatureHumidityPressure
High92 °F (Oct 7, 2:53 pm)97% (Oct 15, 5:34 am)30.13 "Hg (Oct 15, 5:34 am)
Low36 °F (Oct 13, 6:53 am)3% (Oct 11, 12:53 pm)29.77 "Hg (Oct 9, 4:53 pm)
Average60 °F43%29.95 "Hg
* Reported Oct 3 7:53 am — Oct 18 7:53 am, Atascadero. Weather by CustomWeather, © 2019

Note: Actual official high and low records may vary slightly from our data, if they occured in-between our weather recording intervals... More about our weather records

Advertising

Atascadero Weather History for the Previous 24 Hours

Scroll right to see more
 ConditionsComfort  
Time TempWeatherWind HumidityBarometerVisibility
7:53 am
Fri, Oct 18
40 °FSunny.3 mph97%30.06 "Hg10 mi
6:53 am39 °FClear.6 mph93%30.03 "Hg10 mi
5:53 am41 °FClear.7 mph89%30.01 "Hg10 mi
4:53 am42 °FClear.5 mph92%30.01 "Hg10 mi
3:53 am43 °FClear.5 mph93%30.01 "Hg10 mi
2:53 am49 °FClear.7 mph90%29.99 "Hg10 mi
1:53 am51 °FClear.9 mph86%29.98 "Hg10 mi
12:53 am52 °FClear.14 mph83%29.98 "Hg10 mi
11:53 pm
Thu, Oct 17
53 °FClear.9 mph80%29.98 "Hg10 mi
10:53 pm54 °FClear.15 mph77%29.96 "Hg10 mi
9:53 pm56 °FClear.21 mph70%29.94 "Hg10 mi
8:53 pm57 °FClear.20 mph64%29.92 "Hg10 mi
7:53 pm60 °FClear.18 mph53%29.91 "Hg10 mi
6:53 pm64 °FClear.18 mph40%29.88 "Hg10 mi
5:53 pm68 °FSunny.21 mph33%29.87 "Hg10 mi
4:53 pm71 °FSunny.22 mph30%29.86 "Hg10 mi
3:53 pm74 °FSunny.25 mph27%29.86 "Hg10 mi
2:53 pm74 °FSunny.23 mph25%29.85 "Hg10 mi
1:53 pm74 °FSunny.18 mph37%29.86 "Hg10 mi
12:53 pm71 °FSunny.8 mph47%29.89 "Hg10 mi
11:53 am71 °FSunny.14 mph51%29.90 "Hg10 mi
10:53 am63 °FSunny.5 mph63%29.92 "Hg10 mi
9:53 am59 °FPassing clouds.3 mph72%29.92 "Hg10 mi
9:30 am57 °FScattered clouds.9 mph78%29.93 "Hg10 mi
Weather by CustomWeather, © 2019

See weather overview